This is the latest recevied weather packets stored in our database for station/object N8WJW. If no packets are shown the sender has not sent any weather packets the latest 10 day(s).
| Time | Temp. | Humidity | Pressure | Rain* | Wind** | Luminosity | Snow |
|---|---|---|---|---|---|---|---|
| 1778117416 | 6.67° C | 81% | 1014.7 hPa | 0 mm | - | 0 W/m² | - |
| 1778117113 | 6.67° C | 80% | 1014.8 hPa | 0 mm | - | 0 W/m² | - |
| 1778116809 | 7.22° C | 81% | 1014.8 hPa | 0 mm | - | 0 W/m² | - |
| 1778116507 | 7.22° C | 81% | 1014.9 hPa | 0 mm | - | 0 W/m² | - |
| 1778116203 | 7.22° C | 81% | 1014.8 hPa | 0 mm | - | 0 W/m² | - |
| 1778115897 | 7.22° C | 81% | 1014.8 hPa | 0 mm | - | 0 W/m² | - |
| 1778115594 | 7.22° C | 80% | 1014.6 hPa | 0 mm | - | 0 W/m² | - |
| 1778115292 | 7.22° C | 80% | 1014.5 hPa | 0 mm | - | 0 W/m² | - |
| 1778114988 | 7.22° C | 80% | 1014.7 hPa | 0 mm | - | 0 W/m² | - |
| 1778114685 | 7.22° C | 80% | 1014.9 hPa | 0 mm | - | 0 W/m² | - |
| 1778114383 | 7.22° C | 80% | 1014.9 hPa | 0 mm | - | 0 W/m² | - |
| 1778114077 | 7.78° C | 79% | 1014.7 hPa | 0 mm | - | 1 W/m² | - |
| 1778113772 | 7.78° C | 78% | 1014.8 hPa | 0 mm | - | 1 W/m² | - |
| 1778113469 | 7.78° C | 77% | 1014.7 hPa | 0 mm | - | 2 W/m² | - |
| 1778113166 | 7.78° C | 77% | 1014.7 hPa | 0 mm | - | 2 W/m² | - |
| 1778112863 | 7.78° C | 75% | 1014.6 hPa | 0 mm | - | 4 W/m² | - |
| 1778112561 | 7.78° C | 74% | 1014.6 hPa | 0 mm | - | 5 W/m² | - |
| 1778112256 | 7.78° C | 74% | 1014.7 hPa | 0 mm | - | 8 W/m² | - |
| 1778111951 | 8.33° C | 74% | 1014.6 hPa | 0 mm | - | 9 W/m² | - |
| 1778111649 | 8.33° C | 73% | 1014.7 hPa | 0 mm | - | 10 W/m² | - |
| 1778111344 | 8.33° C | 72% | 1014.5 hPa | 0 mm | - | 10 W/m² | - |
| 1778111043 | 8.33° C | 72% | 1014.6 hPa | 0 mm | - | 10 W/m² | - |
| 1778110740 | 8.33° C | 70% | 1014.4 hPa | 0 mm | - | 12 W/m² | - |
| 1778110435 | 8.33° C | 71% | 1014.2 hPa | 0 mm | - | 16 W/m² | - |
| 1778110133 | 8.89° C | 73% | 1014.1 hPa | 0 mm | - | 22 W/m² | - |
* Rain latest hour (hover to see other rain measurements)
** Current wind speed in m/s (hover to see current wind gust speed)